Baseball Grounds of Jacksonville FL US WEATHERSTEM current weather conditions

sailwx.info

Wind from 342 at 2 knots gusting 4

Air temperature 24.7° C
Dewpoint 15.2° C

Last reported at 2020-Oct-01 15:00 UTC.
Time now 2020-Oct-01 16:12 UTC

Location: N 30°19' W 081°39'.
View on Google Maps.

See reports from other nearby stations

  
Tides and Currents Weather Stations Pressure Air Temp Water Temp Dewpoint Dewpoint Depression Visibility Wind Speed Wind Dir Waves Ship Positions
date/time (UTC)wind fromknots sea level pressurealtimeterstation pressurevisibilityair tempwater tempwave heightnotes
2020-Oct-01 15:00 342 2 gusting 4 24.7
2020-Oct-01 14:50 346 0 gusting 4 23.3
2020-Oct-01 14:40 350 4 gusting 5 22.8
2020-Oct-01 14:30 352 2 gusting 5 22.4
2020-Oct-01 14:20 337 2 gusting 5 22.4
2020-Oct-01 14:10 005 5 gusting 4 22.3
2020-Oct-01 14:00 350 4 gusting 3 21.7
2020-Oct-01 13:50 344 0 gusting 3 21.2
2020-Oct-01 13:40 351 1 gusting 3 20.7
2020-Oct-01 13:30 352 2 gusting 3 20.6
2020-Oct-01 13:20 351 1 gusting 3 20.2
2020-Oct-01 13:10 350 3 gusting 2 19.7
2020-Oct-01 13:00 19.3
2020-Oct-01 12:50 342 4 gusting 4 18.9
2020-Oct-01 12:40 18.9
2020-Oct-01 12:30 314 0 gusting 2 18.4
2020-Oct-01 12:20 312 1 gusting 3 17.8
2020-Oct-01 12:10 312 0 gusting 3 17.6
2020-Oct-01 12:00 311 1 gusting 5 17.3
2020-Oct-01 11:50 311 2 gusting 4 17.2
2020-Oct-01 11:40 300 2 gusting 3 17.3
2020-Oct-01 11:30 292 2 gusting 4 17.3
2020-Oct-01 11:20 302 2 gusting 3 17.2
2020-Oct-01 11:10 297 2 gusting 6 17.3
2020-Oct-01 11:00 290 6 gusting 6 17.2
2020-Oct-01 10:50 279 5 gusting 6 16.8
2020-Oct-01 10:40 279 2 gusting 6 16.8
2020-Oct-01 10:30 16.8
2020-Oct-01 10:20 294 2 gusting 6 17.3
2020-Oct-01 10:10 289 2 gusting 4 17.7
2020-Oct-01 09:50 294 2 gusting 5 17.7
2020-Oct-01 09:40 311 3 gusting 4 17.9
2020-Oct-01 09:30 292 2 gusting 6 18.2
2020-Oct-01 09:20 305 2 gusting 6 18.4
2020-Oct-01 09:10 294 4 gusting 4 18.4
2020-Oct-01 09:00 301 3 gusting 3 18.5
2020-Oct-01 08:50 298 1 gusting 4 18.6
2020-Oct-01 08:40 299 2 gusting 3 18.8
2020-Oct-01 08:30 292 1 gusting 2 18.8
2020-Oct-01 08:10 291 1 gusting 0 18.3
2020-Oct-01 07:50 18.6
2020-Oct-01 07:30 302 2 gusting 4 18.6
2020-Oct-01 07:20 304 3 gusting 4 18.8
2020-Oct-01 07:10 304 1 gusting 3 18.9
2020-Oct-01 07:00 304 1 gusting 1 18.6
2020-Oct-01 06:50 304 0 gusting 2 18.8
2020-Oct-01 06:40 304 1 gusting 3 19.0
2020-Oct-01 06:30 302 2 gusting 3 19.1
2020-Oct-01 06:20 308 2 gusting 4 19.1
2020-Oct-01 06:10 304 2 gusting 4 19.1
2020-Oct-01 06:00 305 3 gusting 4 18.9
2020-Oct-01 05:50 305 2 gusting 4 19.0
2020-Oct-01 05:40 306 1 gusting 3 18.9
2020-Oct-01 05:30 306 2 gusting 3 18.9
2020-Oct-01 05:10 306 2 gusting 3 19.2
2020-Oct-01 05:00 306 2 gusting 4 19.4
2020-Oct-01 04:50 320 1 gusting 3 19.7
2020-Oct-01 04:40 311 2 gusting 3 19.6
2020-Oct-01 04:30 321 2 gusting 3 19.6
2020-Oct-01 04:20 20.1
2020-Oct-01 04:10 20.5
2020-Oct-01 04:00 20.7
2020-Oct-01 03:50 20.7
2020-Oct-01 03:40 20.7
2020-Oct-01 03:30 20.8
2020-Oct-01 03:20 20.8
2020-Oct-01 03:10 20.7
2020-Oct-01 03:00 20.8
2020-Oct-01 02:50 20.7
2020-Oct-01 02:40 20.6
2020-Oct-01 02:30 088 1 gusting 2 20.7
2020-Oct-01 02:20 20.8
2020-Oct-01 02:10 088 0 gusting 1 20.9
2020-Oct-01 02:00 20.9
2020-Oct-01 01:50 088 1 gusting 1 21.1
2020-Oct-01 01:40 088 1 gusting 2 21.2
2020-Oct-01 01:30 086 1 gusting 2 21.3
2020-Oct-01 01:20 21.2
2020-Oct-01 01:10 082 1 gusting 4 21.4
2020-Oct-01 01:00 071 2 gusting 4 21.5
2020-Oct-01 00:50 21.4
2020-Oct-01 00:40 085 1 gusting 6 21.6
2020-Oct-01 00:30 084 3 gusting 5 21.6
2020-Oct-01 00:20 105 1 gusting 6 21.8
2020-Oct-01 00:10 093 5 gusting 7 21.9
2020-Oct-01 00:00 071 4 gusting 7 22.2
2020-Sep-30 23:50 080 0 gusting 6 22.1
2020-Sep-30 23:40 066 0 gusting 3 22.4
2020-Sep-30 23:30 013 1 gusting 3 22.7
2020-Sep-30 23:20 015 1 gusting 3 22.9
2020-Sep-30 23:10 013 1 gusting 3 23.3
2020-Sep-30 23:00 336 2 gusting 5 23.9
2020-Sep-30 22:50 345 2 gusting 5 24.2
2020-Sep-30 22:40 024 2 gusting 4 24.2
2020-Sep-30 22:30 324 3 gusting 6 24.3
2020-Sep-30 22:20 352 3 gusting 6 24.6
2020-Sep-30 22:10 346 0 gusting 5 24.6
2020-Sep-30 22:00 027 2 gusting 6 24.7
2020-Sep-30 21:50 342 4 gusting 7 24.6
2020-Sep-30 21:40 333 2 gusting 7 24.7
2020-Sep-30 21:30 010 0 gusting 7 25.1
2020-Sep-30 21:20 336 7 gusting 8 24.9
2020-Sep-30 21:10 035 5 gusting 6 25.3
2020-Sep-30 21:00 317 1 gusting 9 25.1
2020-Sep-30 20:50 322 0 gusting 9 24.9
2020-Sep-30 20:40 012 0 gusting 4 24.6
2020-Sep-30 20:30 293 3 gusting 7 24.8
2020-Sep-30 20:20 331 2 gusting 11 24.8
2020-Sep-30 20:10 360 3 gusting 5 25.7
2020-Sep-30 20:00 267 1 gusting 9 24.9
2020-Sep-30 19:50 313 5 gusting 7 25.2
2020-Sep-30 19:40 272 1 gusting 11 25.2
2020-Sep-30 19:30 287 8 gusting 12 25.1
2020-Sep-30 19:20 250 0 gusting 9 25.0
2020-Sep-30 19:10 345 1 gusting 7 24.8
2020-Sep-30 19:00 234 1 gusting 8 25.0
2020-Sep-30 18:50 333 5 gusting 7 25.2
2020-Sep-30 18:40 352 2 gusting 5 25.6
2020-Sep-30 18:30 313 1 gusting 7 24.6
2020-Sep-30 18:20 329 2 gusting 10 24.4
2020-Sep-30 18:10 028 3 gusting 8 24.7
2020-Sep-30 18:00 360 0 gusting 7 24.4
2020-Sep-30 17:50 036 2 gusting 9 24.3
2020-Sep-30 17:40 038 4 gusting 7 23.7
2020-Sep-30 17:20 352 2 gusting 6 24.5
2020-Sep-30 17:10 024 3 gusting 8 22.9
2020-Sep-30 17:00 360 3 gusting 9 22.8
2020-Sep-30 16:50 005 0 gusting 9 22.8
2020-Sep-30 16:40 247 4 gusting 9 21.9
2020-Sep-30 16:30 015 6 gusting 8 22.4
2020-Sep-30 16:20 315 4 gusting 7 21.8
2020-Sep-30 16:10 274 3 gusting 8 21.9
2020-Sep-30 16:00 051 5 gusting 9 21.8
2020-Sep-30 15:50 327 3 gusting 10 21.2
2020-Sep-30 15:40 338 6 gusting 10 21.6
2020-Sep-30 15:30 026 8 gusting 13 20.9
2020-Sep-30 15:20 348 3 gusting 12 20.8
2020-Sep-30 15:10 022 10 gusting 10 20.6
2020-Sep-30 15:00 030 3 gusting 13 20.3
2020-Sep-30 14:50 329 10 gusting 13 19.9
2020-Sep-30 14:40 360 8 gusting 13 19.7
2020-Sep-30 14:30 334 7 gusting 15 18.9
2020-Sep-30 14:20 352 13 gusting 12 19.3
2020-Sep-30 14:10 028 6 gusting 12 19.3
2020-Sep-30 14:00 335 7 gusting 14 18.6
2020-Sep-30 13:50 340 7 gusting 13 18.3
2020-Sep-30 13:40 352 6 gusting 13 17.9
2020-Sep-30 13:30 348 1 gusting 11 17.3
2020-Sep-30 13:20 306 6 gusting 9 16.8
2020-Sep-30 13:10 342 7 gusting 12 16.4
2020-Sep-30 13:00 281 6 gusting 10 16.5
2020-Sep-30 12:50 311 6 gusting 9 16.5
2020-Sep-30 12:40 316 2 gusting 11 16.6
2020-Sep-30 12:30 314 9 gusting 12 16.3
2020-Sep-30 12:20 319 5 gusting 8 16.2
2020-Sep-30 12:10 305 2 gusting 9 16.2
2020-Sep-30 12:00 298 0 gusting 7 16.1
2020-Sep-30 11:50 298 1 gusting 6 15.9
2020-Sep-30 11:40 284 3 gusting 6 15.8
2020-Sep-30 11:30 344 0 gusting 7 15.7
2020-Sep-30 11:20 295 2 gusting 6 15.8
2020-Sep-30 11:10 331 2 gusting 6 15.8
2020-Sep-30 11:00 346 6 gusting 7 15.8
2020-Sep-30 10:50 340 0 gusting 6 15.9
2020-Sep-30 10:40 352 5 gusting 6 15.9
2020-Sep-30 10:30 350 3 gusting 8 15.9
2020-Sep-30 10:20 352 4 gusting 5 15.9
2020-Sep-30 10:10 15.9
2020-Sep-30 10:00 336 2 gusting 7 16.0
2020-Sep-30 09:50 319 2 gusting 7 16.0
2020-Sep-30 09:40 014 2 gusting 6 16.1
2020-Sep-30 09:30 277 6 gusting 7 16.1
2020-Sep-30 09:20 335 2 gusting 6 16.2
2020-Sep-30 09:10 275 6 gusting 7 16.3
2020-Sep-30 09:00 336 1 gusting 10 16.3
2020-Sep-30 08:50 280 5 gusting 10 16.3
2020-Sep-30 08:40 281 6 gusting 9 16.3
2020-Sep-30 08:30 288 6 gusting 8 16.3
2020-Sep-30 08:20 317 1 gusting 8 16.3
2020-Sep-30 08:10 271 5 gusting 9 16.3
2020-Sep-30 07:50 280 2 gusting 7 16.4
2020-Sep-30 07:40 311 2 gusting 7 16.3
2020-Sep-30 07:30 267 7 gusting 10 16.4
2020-Sep-30 07:20 264 3 gusting 10 16.5
2020-Sep-30 07:10 290 6 gusting 11 16.6
2020-Sep-30 07:00 262 8 gusting 12 16.7
2020-Sep-30 06:50 323 1 gusting 8 16.8
2020-Sep-30 06:40 326 3 gusting 8 16.8
2020-Sep-30 06:30 271 6 gusting 10 16.9
2020-Sep-30 06:20 273 3 gusting 10 17.1
2020-Sep-30 06:10 293 1 gusting 6 17.1
2020-Sep-30 06:00 360 1 gusting 6 17.1
2020-Sep-30 05:50 307 1 gusting 6 17.1
2020-Sep-30 05:40 291 1 gusting 7 17.1
2020-Sep-30 05:30 313 4 gusting 7 17.1
2020-Sep-30 05:20 333 3 gusting 7 17.0
2020-Sep-30 05:10 344 0 gusting 9 16.9
2020-Sep-30 05:00 320 2 gusting 7 16.9
2020-Sep-30 04:50 360 4 gusting 9 17.0
2020-Sep-30 04:40 289 4 gusting 9 17.1
2020-Sep-30 04:30 323 0 gusting 8 17.1
2020-Sep-30 04:20 021 3 gusting 9 17.1
2020-Sep-30 04:10 292 2 gusting 7 17.1
2020-Sep-30 04:00 350 3 gusting 10 17.2
2020-Sep-30 03:50 338 2 gusting 11 17.2
2020-Sep-30 03:40 352 3 gusting 14 17.3
2020-Sep-30 03:30 314 5 gusting 12 17.4
2020-Sep-30 03:20 326 6 gusting 9 17.5
2020-Sep-30 03:10 274 2 gusting 8 17.6
2020-Sep-30 03:00 284 3 gusting 10 17.6
2020-Sep-30 02:50 321 3 gusting 10 17.4
2020-Sep-30 02:40 005 3 gusting 9 17.4
2020-Sep-30 02:30 326 2 gusting 6 17.4
2020-Sep-30 02:20 321 0 gusting 7 17.5
2020-Sep-30 02:10 313 3 gusting 6 17.6
2020-Sep-30 02:00 17.6
2020-Sep-30 01:50 360 4 gusting 9 17.7
2020-Sep-30 01:40 271 2 gusting 6 17.7
2020-Sep-30 01:30 280 1 gusting 7 17.8
2020-Sep-30 01:20 352 1 gusting 7 17.8
2020-Sep-30 01:10 325 2 gusting 7 17.8
2020-Sep-30 01:00 259 0 gusting 9 17.7
2020-Sep-30 00:50 360 1 gusting 8 17.6
2020-Sep-30 00:40 311 5 gusting 9 17.5
2020-Sep-30 00:30 302 6 gusting 10 17.5
2020-Sep-30 00:20 302 6 gusting 9 17.5
2020-Sep-30 00:10 337 0 gusting 14 17.5
2020-Sep-30 00:00 346 2 gusting 11 17.6
2020-Sep-29 23:50 016 4 gusting 17 17.7
2020-Sep-29 23:30 026 7 gusting 16 18.1
2020-Sep-29 23:20 350 9 gusting 19 18.2
2020-Sep-29 23:10 328 7 gusting 17 18.4
2020-Sep-29 23:00 352 5 gusting 22 18.6
2020-Sep-29 22:50 346 7 gusting 17 19.1
2020-Sep-29 22:40 352 10 gusting 21 19.3
2020-Sep-29 22:30 332 8 gusting 13 19.8
2020-Sep-29 22:20 279 12 gusting 22 20.5
2020-Sep-29 22:10 336 5 gusting 31 23.3
2020-Sep-29 22:00 240 6 gusting 12 26.8
2020-Sep-29 21:50 285 6 gusting 13 27.1
2020-Sep-29 21:40 261 10 gusting 15 27.4
2020-Sep-29 21:30 286 9 gusting 13 27.8
2020-Sep-29 21:20 268 3 gusting 15 28.3
2020-Sep-29 21:10 265 6 gusting 19 28.2
2020-Sep-29 21:00 235 6 gusting 18 28.3
2020-Sep-29 20:40 240 11 gusting 20 28.6
2020-Sep-29 20:30 257 11 gusting 23 28.5
2020-Sep-29 20:10 243 10 gusting 18 28.7
2020-Sep-29 20:00 226 6 gusting 18 28.7
2020-Sep-29 19:50 259 13 gusting 19 28.7
2020-Sep-29 19:30 290 3 gusting 14 28.3
2020-Sep-29 19:20 277 8 gusting 18 28.0
2020-Sep-29 19:10 254 14 gusting 16 29.3
2020-Sep-29 19:00 242 10 gusting 19 31.0
2020-Sep-29 18:50 169 10 gusting 18 30.7
2020-Sep-29 18:40 184 7 gusting 17 31.0
2020-Sep-29 18:20 242 5 gusting 15 30.3
2020-Sep-29 18:10 233 6 gusting 18 30.4
2020-Sep-29 18:00 218 8 gusting 13 30.0
2020-Sep-29 17:50 216 10 gusting 13 30.1
2020-Sep-29 17:40 229 10 gusting 12 29.5
2020-Sep-29 17:30 212 4 gusting 10 29.5
2020-Sep-29 17:20 259 6 gusting 11 28.5
2020-Sep-29 17:10 225 4 gusting 12 28.7
2020-Sep-29 17:00 219 6 gusting 12 28.5
2020-Sep-29 16:50 232 6 gusting 13 28.0
2020-Sep-29 16:40 219 6 gusting 10 27.7
2020-Sep-29 16:30 227 7 gusting 10 27.3
2020-Sep-29 16:20 215 5 gusting 10 27.3
2020-Sep-29 16:00 223 5 gusting 9 27.0